Tevel 2-3

operational
NORAD ID: 63239 Int'l Des: NNA 2025-052 Owner: TAU/ISA Country: IL
LEOCIRCULARRETROGRADESSO

About Tevel 2-3

Description loading...

Live Position

Loading 3D Globe...

Upcoming Passes

Altitude History

Altitude vs Time

uPlot chart will show altitude changes over time

Two-Line Element Set

1 63239U 25052AF 26061.13822340 .00019524 00000-0 71468-3 0 9995
2 63239 97.4080 316.8062 0007312 146.8158 213.3541 15.28053370 53657
Epoch: Mar 2, 2026 • Age: 30 hours

Current Status

Altitude 512.8 km
Velocity 7.60 km/s
Sub-Earth Point -82.39°S, 176.98°E
Launch Date Mar 15, 2025
Age 0.9 years
Type other

Technical Details

Classification Payload
Mass 1.00 kg
Dry Mass 1.00 kg
Total Mass 1.00 kg
Length 0.10 m
Diameter 0.10 m
Span 0.10 m
Shape Box
Manufacturer ISA/TAU
Bus Type Cubesat 1U
Phase Status In Orbit
Owner/State TAU/ISA/IL

Large Constellations

Loading constellations...